• In Netherlands
  • List of Countries
  • For 7 days
  • Water Temperature
  • Satellite Maps
  • Weather Map
  • Weather Widgets
  • user-avatar
    Login

    Hourly Weather Innsbruck

    Today, 23 May, Tuesday

    Time Temperature Precipitation Wind Pressure Humidity
    00:00 +2°C° 0 mm 1 mps 595 mmHg 93%
    01:00 +1°C° 0 mm 1 mps 595 mmHg 93%
    02:00 +1°C° 0 mm 1 mps 595 mmHg 93%
    03:00 +1°C° 0 mm 1 mps 595 mmHg 92%
    04:00 +1°C° 0 mm 1 mps 595 mmHg 91%
    05:00 +3°C° 0 mm 1 mps 596 mmHg 87%
    06:00 +5°C° 0 mm 1 mps 597 mmHg 83%
    07:00 +7°C° 0 mm 1 mps 598 mmHg 79%
    08:00 +9°C° 0 mm 1 mps 599 mmHg 71%
    09:00 +11°C° 0 mm 1 mps 600 mmHg 62%
    10:00 +12°C° 0 mm 1 mps 600 mmHg 54%
    11:00 +13°C° 0.1 mm 2 mps 601 mmHg 53%
    12:00 +14°C° 0.1 mm 2 mps 601 mmHg 51%
    13:00 +14°C° 0.1 mm 2 mps 601 mmHg 50%
    14:00 +14°C° 0.2 mm 2 mps 601 mmHg 54%
    15:00 +13°C° 0.2 mm 2 mps 601 mmHg 58%
    16:00 +13°C° 0.2 mm 2 mps 600 mmHg 62%
    17:00 +10°C° 0.2 mm 2 mps 600 mmHg 71%
    18:00 +10°C° 0.2 mm 1 mps 599 mmHg 80%
    19:00 +8°C° 0.2 mm 1 mps 599 mmHg 89%
    20:00 +7°C° 0 mm 1 mps 599 mmHg 90%
    21:00 +6°C° 0 mm 1 mps 598 mmHg 92%
    22:00 +5°C° 0 mm 1 mps 598 mmHg 94%
    23:00 +4°C° 0 mm 1 mps 598 mmHg 94%

    Tomorrow, 24 May, Wednesday

    Time Temperature Precipitation Wind Pressure Humidity
    00:00 +4°C° 0 mm 1 mps 598 mmHg 94%
    01:00 +4°C° 0 mm 1 mps 598 mmHg 94%
    02:00 +4°C° 0 mm 1 mps 598 mmHg 94%
    03:00 +3°C° 0 mm 1 mps 598 mmHg 94%
    04:00 +3°C° 0 mm 1 mps 597 mmHg 94%
    05:00 +5°C° 0.1 mm 1 mps 598 mmHg 92%
    06:00 +6°C° 0.1 mm 1 mps 599 mmHg 91%
    07:00 +7°C° 0.1 mm 1 mps 599 mmHg 89%
    08:00 +8°C° 0.1 mm 1 mps 600 mmHg 85%
    09:00 +8°C° 0.1 mm 2 mps 600 mmHg 81%
    10:00 +9°C° 0.1 mm 2 mps 601 mmHg 77%
    11:00 +9°C° 0.1 mm 2 mps 601 mmHg 73%
    12:00 +10°C° 0.1 mm 2 mps 601 mmHg 69%
    13:00 +12°C° 0.1 mm 2 mps 601 mmHg 65%
    14:00 +12°C° 0.1 mm 2 mps 601 mmHg 63%
    15:00 +12°C° 0.1 mm 2 mps 601 mmHg 61%
    16:00 +12°C° 0.1 mm 2 mps 601 mmHg 60%
    17:00 +10°C° 0 mm 2 mps 601 mmHg 67%
    18:00 +8°C° 0 mm 2 mps 600 mmHg 75%
    19:00 +7°C° 0 mm 2 mps 600 mmHg 82%
    20:00 +5°C° 0 mm 2 mps 599 mmHg 86%
    21:00 +5°C° 0 mm 1 mps 599 mmHg 91%
    22:00 +3°C° 0 mm 1 mps 598 mmHg 95%
    23:00 +3°C° 0 mm 1 mps 598 mmHg 95%

    Day after tomorrow, 25 May, Thursday

    Time Temperature Precipitation Wind Pressure Humidity
    00:00 +2°C° 0 mm 1 mps 598 mmHg 95%
    01:00 +2°C° 0 mm 1 mps 598 mmHg 95%
    02:00 +2°C° 0 mm 1 mps 597 mmHg 94%
    03:00 +1°C° 0 mm 1 mps 597 mmHg 93%
    04:00 +1°C° 0 mm 1 mps 597 mmHg 92%
    05:00 +3°C° 0 mm 1 mps 598 mmHg 85%
    06:00 +5°C° 0 mm 1 mps 599 mmHg 78%
    07:00 +7°C° 0 mm 1 mps 600 mmHg 71%
    08:00 +9°C° 0 mm 1 mps 600 mmHg 65%
    09:00 +10°C° 0 mm 2 mps 601 mmHg 58%
    10:00 +13°C° 0 mm 2 mps 602 mmHg 52%
    11:00 +13°C° 0 mm 2 mps 602 mmHg 50%
    12:00 +14°C° 0 mm 2 mps 602 mmHg 49%
    13:00 +14°C° 0 mm 2 mps 602 mmHg 48%
    14:00 +14°C° 0 mm 2 mps 601 mmHg 52%
    15:00 +13°C° 0 mm 2 mps 601 mmHg 55%
    16:00 +13°C° 0 mm 2 mps 600 mmHg 59%
    17:00 +12°C° 0 mm 2 mps 600 mmHg 68%
    18:00 +9°C° 0 mm 2 mps 599 mmHg 77%
    19:00 +9°C° 0 mm 1 mps 598 mmHg 85%
    20:00 +7°C° 0 mm 1 mps 598 mmHg 89%
    21:00 +6°C° 0 mm 1 mps 598 mmHg 92%
    22:00 +5°C° 0 mm 1 mps 597 mmHg 96%
    23:00 +4°C° 0 mm 1 mps 597 mmHg 96%

    26 May, Friday

    Time Temperature Precipitation Wind Pressure Humidity
    00:00 +4°C° 0 mm 1 mps 597 mmHg 96%
    01:00 +3°C° 0 mm 1 mps 596 mmHg 97%
    02:00 +3°C° 0 mm 1 mps 596 mmHg 97%
    03:00 +3°C° 0 mm 1 mps 596 mmHg 97%
    04:00 +2°C° 0 mm 1 mps 595 mmHg 97%
    05:00 +4°C° 0 mm 1 mps 596 mmHg 91%
    06:00 +6°C° 0 mm 1 mps 597 mmHg 86%
    07:00 +8°C° 0 mm 1 mps 598 mmHg 81%
    08:00 +9°C° 0 mm 1 mps 598 mmHg 72%
    09:00 +10°C° 0 mm 2 mps 599 mmHg 63%
    10:00 +12°C° 0 mm 2 mps 599 mmHg 55%
    11:00 +13°C° 0 mm 2 mps 599 mmHg 52%
    12:00 +14°C° 0 mm 2 mps 599 mmHg 50%
    13:00 +15°C° 0 mm 2 mps 600 mmHg 47%
    14:00 +15°C° 0 mm 2 mps 599 mmHg 50%
    15:00 +14°C° 0 mm 2 mps 599 mmHg 52%
    16:00 +14°C° 0 mm 2 mps 599 mmHg 55%
    17:00 +12°C° 0 mm 2 mps 598 mmHg 65%
    18:00 +10°C° 0 mm 2 mps 598 mmHg 74%
    19:00 +8°C° 0 mm 2 mps 597 mmHg 84%
    20:00 +8°C° 0 mm 1 mps 597 mmHg 89%
    21:00 +6°C° 0 mm 1 mps 596 mmHg 93%
    22:00 +5°C° 0 mm 1 mps 596 mmHg 97%
    23:00 +4°C° 0 mm 1 mps 595 mmHg 97%

    27 May, Saturday

    Time Temperature Precipitation Wind Pressure Humidity
    00:00 +3°C° 0 mm 1 mps 595 mmHg 97%
    01:00 +3°C° 0 mm 1 mps 595 mmHg 97%
    02:00 +2°C° 0 mm 1 mps 594 mmHg 96%
    03:00 +1°C° 0 mm 1 mps 594 mmHg 95%
    04:00 +1°C° 0 mm 1 mps 593 mmHg 95%
    05:00 +3°C° 0 mm 1 mps 595 mmHg 87%
    06:00 +5°C° 0 mm 1 mps 596 mmHg 80%
    07:00 +8°C° 0 mm 1 mps 597 mmHg 72%
    08:00 +10°C° 0 mm 1 mps 598 mmHg 63%
    09:00 +10°C° 0 mm 2 mps 598 mmHg 55%
    10:00 +13°C° 0 mm 2 mps 599 mmHg 46%
    11:00 +14°C° 0 mm 2 mps 599 mmHg 45%
    12:00 +14°C° 0 mm 2 mps 599 mmHg 44%
    13:00 +14°C° 0 mm 3 mps 600 mmHg 42%
    14:00 +13°C° 0 mm 3 mps 599 mmHg 46%
    15:00 +13°C° 0 mm 3 mps 599 mmHg 49%
    16:00 +13°C° 0 mm 3 mps 599 mmHg 52%
    17:00 +12°C° 0.1 mm 2 mps 599 mmHg 62%
    18:00 +9°C° 0.1 mm 2 mps 598 mmHg 72%
    19:00 +9°C° 0.1 mm 1 mps 598 mmHg 82%
    20:00 +7°C° 0 mm 1 mps 597 mmHg 87%
    21:00 +5°C° 0 mm 1 mps 597 mmHg 92%
    22:00 +4°C° 0 mm 1 mps 597 mmHg 97%
    23:00 +4°C° 0 mm 1 mps 597 mmHg 97%

    28 May, Sunday

    Time Temperature Precipitation Wind Pressure Humidity
    00:00 +4°C° 0 mm 1 mps 597 mmHg 96%
    01:00 +4°C° 0 mm 2 mps 597 mmHg 96%
    02:00 +4°C° 0 mm 2 mps 598 mmHg 96%
    03:00 +4°C° 0 mm 2 mps 598 mmHg 96%
    04:00 +4°C° 0 mm 2 mps 598 mmHg 96%
    05:00 +6°C° 0 mm 1 mps 598 mmHg 91%
    06:00 +7°C° 0 mm 1 mps 599 mmHg 87%
    07:00 +9°C° 0 mm 1 mps 600 mmHg 83%
    08:00 +11°C° 0 mm 1 mps 601 mmHg 70%
    09:00 +13°C° 0 mm 1 mps 602 mmHg 58%
    10:00 +16°C° 0 mm 1 mps 603 mmHg 45%
    11:00 +18°C° 0 mm 1 mps 603 mmHg 43%
    12:00 +18°C° 0 mm 1 mps 603 mmHg 40%
    13:00 +18°C° 0 mm 2 mps 604 mmHg 37%
    14:00 +18°C° 0 mm 2 mps 603 mmHg 41%
    15:00 +17°C° 0 mm 2 mps 603 mmHg 44%
    16:00 +16°C° 0 mm 2 mps 603 mmHg 47%
    17:00 +15°C° 0 mm 2 mps 602 mmHg 57%
    18:00 +13°C° 0 mm 1 mps 602 mmHg 68%
    19:00 +12°C° 0 mm 1 mps 601 mmHg 78%
    20:00 +10°C° 0 mm 1 mps 601 mmHg 84%
    21:00 +9°C° 0 mm 1 mps 600 mmHg 89%
    22:00 +6°C° 0 mm 2 mps 600 mmHg 94%
    23:00 +6°C° 0 mm 2 mps 600 mmHg 94%
    Show more